This is the latest recevied weather packets stored in our database for station/object W4DHW-4. If no packets are shown the sender has not sent any weather packets the latest 10 day(s).
| Time | Temp. | Humidity | Pressure | Rain* | Wind** | Luminosity | Snow |
|---|---|---|---|---|---|---|---|
| 1778191435 | 16.67° C | 76% | 1009.8 hPa | 0 mm | - | 274 W/m² | - |
| 1778191131 | 16.67° C | 76% | 1009.6 hPa | 0 mm | - | 288 W/m² | - |
| 1778190828 | 16.11° C | 75% | 1009.6 hPa | 0 mm | - | 90 W/m² | - |
| 1778190525 | 16.11° C | 75% | 1009.6 hPa | 0 mm | - | 331 W/m² | - |
| 1778190224 | 16.11° C | 75% | 1009.8 hPa | 0 mm | - | 72 W/m² | - |
| 1778189924 | 16.11° C | 74% | 1009.9 hPa | 0 mm | - | 217 W/m² | - |
| 1778189621 | 16.67° C | 74% | 1009.8 hPa | 0 mm | - | 372 W/m² | - |
| 1778189317 | 16.67° C | 74% | 1009.8 hPa | 0 mm | - | 394 W/m² | - |
| 1778189013 | 16.11° C | 75% | 1009.8 hPa | 0 mm | - | 392 W/m² | - |
| 1778188710 | 16.11° C | 74% | 1009.8 hPa | 0 mm | - | 430 W/m² | - |
| 1778188407 | 16.11° C | 74% | 1009.6 hPa | 0 mm | - | 460 W/m² | - |
| 1778188104 | 15.56° C | 75% | 1009.6 hPa | 0 mm | - | 149 W/m² | - |
| 1778187801 | 15.56° C | 75% | 1009.7 hPa | 0 mm | - | 321 W/m² | - |
| 1778187497 | 15.56° C | 75% | 1009.6 hPa | 0 mm | - | 138 W/m² | - |
| 1778187194 | 15.56° C | 76% | 1009.7 hPa | 0 mm | - | 118 W/m² | - |
| 1778186890 | 15.56° C | 77% | 1009.6 hPa | 0 mm | - | 147 W/m² | - |
| 1778186588 | 15.56° C | 78% | 1009.5 hPa | 0 mm | - | 147 W/m² | - |
| 1778186286 | 16.11° C | 77% | 1009.6 hPa | 0 mm | - | 164 W/m² | - |
| 1778185983 | 16.11° C | 77% | 1009.7 hPa | 0 mm | - | 231 W/m² | - |
| 1778185679 | 16.11° C | 77% | 1009.9 hPa | 0 mm | - | 200 W/m² | - |
| 1778185375 | 15.56° C | 79% | 1009.8 hPa | 0 mm | - | 159 W/m² | - |
| 1778185070 | 15.56° C | 79% | 1010.2 hPa | 0 mm | - | 263 W/m² | - |
| 1778184767 | 15.56° C | 78% | 1010.1 hPa | 0 mm | - | 309 W/m² | - |
| 1778184463 | 15.56° C | 80% | 1010.1 hPa | 0 mm | - | 309 W/m² | - |
| 1778184159 | 15° C | 80% | 1010 hPa | 0 mm | - | 297 W/m² | - |
* Rain latest hour (hover to see other rain measurements)
** Current wind speed in m/s (hover to see current wind gust speed)